Regional Weather Roundup
Issued by NWS San Angelo, TX

Home | Current Version | Previous Version | Text Only | Print | Product List | Glossary On
Versions: 1 2 3 4 5 6 7 8 9 10 11 12 13 14 15 16 17 18 19 20 21 22 23 24 25 26 27 28 29 30 31 32 33 34 35 36 37 38 39 40 41 42 43 44 45 46 47 48 49 50
000
ASUS44 KSJT 281310
RWRSJT
WEST CENTRAL TEXAS REGIONAL WEATHER ROUNDUP
NATIONAL WEATHER SERVICE SAN ANGELO TX
800 AM CDT TUE JUL 28 2015

NOTE: "FAIR" INDICATES FEW OR NO CLOUDS BELOW 12,000 FEET WITH NO
SIGNIFICANT WEATHER AND/OR OBSTRUCTIONS TO VISIBILITY.

TXZ049-054-064>066-071>073-076>078-098-099-113-114-127-128-139-140-
154-155-168>170-281400
...LOCATIONS ACROSS WEST CENTRAL TEXAS...

CITY           SKY/WX    TMP DP  RH WIND       PRES   REMARKS
SAN ANGELO     SUNNY     78  70  76 S9        29.99R
ABILENE        SUNNY     77  67  71 S8        29.98R
DYESS AFB      SUNNY     78  69  72 S8        29.97R
JUNCTION       CLOUDY    77  69  76 S10       30.00R
SWEETWATER     SUNNY     77  66  70 S12       30.02R
BROWNWOOD      MOSUNNY   75  70  83 S6        29.99R
COLEMAN        SUNNY     75  70  83 S7        30.00R
SONORA         SUNNY     75  70  83 SE6       30.04S
OZONA          FAIR      73  68  83 S7        30.02S
BRADY          CLOUDY    77  72  83 S9        29.99R
$$

TEXAS PANHANDLE/OKLAHOMA PANHANDLE

CITY           SKY/WX    TMP DP  RH WIND       PRES   REMARKS
AMARILLO       SUNNY     72  62  71 S8        30.00R
BORGER         SUNNY     75  65  70 SW6       29.96R
CANADIAN       SUNNY     77  66  69 SW10G16   29.90F
DALHART        MOSUNNY   69  60  73 S8        30.02R
DUMAS          SUNNY     73  61  67 SW10      30.00R
GUYMON         NOT AVBL
HEREFORD       SUNNY     73  65  75 MISG      30.04R
PAMPA          SUNNY     73  63  70 S12       29.98R
PERRYTON       SUNNY     77  63  61 S12       29.93R
$$

SOUTHERN PANHANDLE/SOUTH PLAINS/ROLLING PLAINS

CITY           SKY/WX    TMP DP  RH WIND       PRES   REMARKS
LUBBOCK        MOSUNNY   75  61  61 S5        30.01R
SNYDER         SUNNY     74  65  72 S8        30.00R
CHILDRESS      SUNNY     78  65  63 S13       29.93R
SEMINOLE       SUNNY     74  60  61 SE3       30.03R
$$

PERMIAN BASIN

CITY           SKY/WX    TMP DP  RH WIND       PRES   REMARKS
MIDLAND        SUNNY     79  65  62 S9        29.99R
ODESSA         SUNNY     79  63  57 S9        30.00R
WINK           SUNNY     79  62  56 SE15      29.95R
$$

FAR WEST/SOUTHWEST MOUNTAINS/TRANS PECOS

CITY           SKY/WX    TMP DP  RH WIND       PRES   REMARKS
ALPINE         SUNNY     70  57  63 SW6       30.16R
DRYDEN           N/A     78  72  81 VRB6      29.97R
EL PASO        PTCLDY    78  56  46 S14       30.05R
FORT STOCKTON  CLEAR     75  64  68 S10       30.00R
GUADALUPE PASS PTCLDY    70  55  59 SW15      30.16R
MARFA          CLEAR     63  61  94 N5        30.14S
PECOS          SUNNY     76  60  57 CALM      29.96R HAZE
$$

DALLAS/FORT WORTH METROPLEX

CITY           SKY/WX    TMP DP  RH WIND       PRES   REMARKS
DFW AIRPORT    SUNNY     82  70  66 SW13      29.95R
FTW MEACHAM      N/A     82  71  69 S9        29.95R
DAL-EXECUTIVE  SUNNY     80  70  71 VRB3      29.96R
GRAND PRAIRIE  SUNNY     81  72  74 S9        29.98R
ADDISON        SUNNY     82  68  61 S9        29.97R
MESQUITE       SUNNY     79  72  78 SE5       29.97R
LANCASTER      SUNNY     79  70  74 S5        29.97R
$$

NORTH CENTRAL TEXAS

CITY           SKY/WX    TMP DP  RH WIND       PRES   REMARKS
SHRMAN/DENISON SUNNY     82  73  74 S6        29.97R
GAINESVILLE    SUNNY     77  69  77 CALM      29.98R
BRIDGEPORT     NOT AVBL
DENTON         SUNNY     80  71  74 S5        29.95R
WAXAHACHIE     SUNNY     78  72  82 S8        29.98R
GRANBURY       SUNNY     81  69  67 SE5       29.98R
$$

WESTERN NORTH TEXAS

CITY           SKY/WX    TMP DP  RH WIND       PRES   REMARKS
WICHITA FALLS  SUNNY     78  68  71 MISG      29.93R
VERNON         SUNNY     80  62  53 S12       29.93S
BRECKENRIDGE   SUNNY     79  68  70 S8        29.96R
COMANCHE       SUNNY     75  70  84 S8        29.98R
$$

CENTRAL AND SOUTH CENTRAL TEXAS

CITY           SKY/WX    TMP DP  RH WIND       PRES   REMARKS
AUSTIN/BERGSTM PTSUNNY   76  76 100 S9        29.97R FOG
WACO           MOSUNNY   78  73  84 S13       29.98R
HILLSBORO      SUNNY     78  71  79 S9        29.98R
TEMPLE         MOSUNNY   75  70  83 S9        29.98R
KILLEEN-GRAY   SUNNY     76  73  90 S8        29.98R FOG
FORT HOOD      MOSUNNY   76  73  88 S8        29.97R
GEORGETOWN     SUNNY     79  72  78 S10       29.96R
LAGO VISTA     CLOUDY    76  72  87 S8        30.00R
SAN MARCOS     MOSUNNY   77  75  94 S6        29.98S FOG
NEW BRAUNFELS  CLOUDY    79  75  87 S10       29.96S
RANDOLPH AFB   CLOUDY    78  74  89 S8        29.98R
SAN ANTONIO    PTSUNNY   80  73  79 S12       29.99R
STINSON        CLOUDY    79  75  87 SE6       29.96R
PLEASANTON     NOT AVBL
LA GRANGE      CLOUDY    79  78  96 S5        29.97R FOG
GIDDINGS       CLOUDY    78  75  91 S6        30.02S FOG
$$

EAST TEXAS

CITY           SKY/WX    TMP DP  RH WIND       PRES   REMARKS
PARIS          SUNNY     81  72  74 SW6       29.97R
CLARKSVILLE    NOT AVBL
TYLER          SUNNY     82  73  74 SW7       29.99R
LONGVIEW       SUNNY     81  74  79 SW6       29.98R
PALESTINE      CLOUDY    78  75  90 S3        30.01R
NACOGDOCHES    SUNNY     77  73  88 S3        30.00R
$$

TEXAS HILL COUNTRY AND EDWARDS PLATEAU

CITY           SKY/WX    TMP DP  RH WIND       PRES   REMARKS
LLANO          PTSUNNY   75  72  88 CALM      30.02R
HORSESHOE BAY  FAIR      76  72  87 CALM      29.99R
KERRVILLE      CLOUDY    76  73  87 S10       30.01R
FREDERICKSBRG  CLOUDY    75  67  76 S12       30.00S
ROCKSPRINGS    MOSUNNY   73  70  88 S10       30.04R HAZE
HONDO          CLOUDY    78  73  84 SE9       30.00R
UVALDE         CLOUDY    76  73  88 E7        29.97R
DEL RIO        CLOUDY    78  72  81 E9        29.93R
$$

SOUTHEAST TEXAS

CITY           SKY/WX    TMP DP  RH WIND       PRES   REMARKS
COLLEGE STN    CLOUDY    78  76  93 S7        29.99R FOG
CALDWELL       SUNNY     75  75 100 S6        30.02R FOG
CROCKETT       PTSUNNY   79  79 100 SW3       30.03R
BRENHAM        CLOUDY    79  78  98 S5        30.00R FOG
HUNTSVILLE     MOSUNNY   79  76  90 S6        30.00R
CONROE         PTSUNNY   78  74  87 CALM      30.01R
HOUSTON BUSH   MOSUNNY   80  78  94 S3        30.00R
HOUSTON HOBBY  MOSUNNY   81  77  88 CALM      29.99R
PERLAND        SUNNY     81  76  84 CALM      30.01R
WHARTON        SUNNY     76  75  98 CALM      29.99R FOG
$$

THE UPPER TEXAS COAST

CITY           SKY/WX    TMP DP  RH WIND       PRES   REMARKS
ORANGE         PTSUNNY   79  79 100 CALM      30.02R
PORT ARTHUR    MOSUNNY   82  80  94 CALM      29.99R
GALVESTON      SUNNY     85  78  80 SW8       30.00R
ANGLETON       SUNNY     80  78  94 CALM      29.98S
BAY CITY       SUNNY     78  78 100 CALM      29.98R FOG
$$

TEXAS COASTAL BEND, RIO GRANDE PLAINS DEEP SOUTH TEXAS

CITY           SKY/WX    TMP DP  RH WIND       PRES   REMARKS
VICTORIA       MOSUNNY   76  76 100 E3        29.97S FOG
BEEVILLE       CLOUDY    73  73 100 SE5       29.95S
ROCKPORT       MOSUNNY   84  78  82 S6        29.95R
PORT ARANSAS   SUNNY     81  79  94 S8        29.94R
PORT LAVACA    MOSUNNY   79  79 100 SE3       29.97R FOG
CORPUS CHRISTI MOSUNNY   82  78  88 SE8       29.94R
KINGSVILLE NAS MOSUNNY   81  81 100 SE7       29.93R FOG
COTULLA        CLOUDY    80  74  81 SE9       29.94R
LAREDO         PTSUNNY   80  74  82 SE10      29.94R
BROWNSVILLE    SUNNY     80  78  94 SE7       29.93R FOG
PORT ISABEL    SUNNY     81  79  94 SE8       29.93R FOG
HEBBRONVILLE     N/A     78  75  91 SE10      29.94R
MCALLEN        CLOUDY    84  77  79 SE14      29.92R
WESLACO        SUNNY     81  76  86 SE7       29.92R HAZE
FALFURRIAS     SUNNY     80  77  92 SE8       29.92S
EDINBURG       MOSUNNY   81  77  89 SE9       29.92S FOG
$$


USA.gov is the U.S. government's official web portal to all federal, state and local government web resources and services.